Oakland, CA

9:57 AM PST on December 12, 2019 (GMT -0800)
Metro Oakland International

Weather History for KOAK - October, 2019

Change the Weather History Date:

Thursday, October 10, 2019

  Actual Average Record
Temperature  
Mean Temperature 63 °F 62 °F  
Max Temperature 79 °F 71 °F 87 °F (1958)
Min Temperature 46 °F 52 °F 46 °F (2004)
Degree Days  
Heating Degree Days 2 4  
Month to date heating degree days 28 35  
Since 1 July heating degree days 58 235  
Cooling Degree Days 0 1  
Month to date cooling degree days 9 10  
Year to date cooling degree days 373 135  
Growing Degree Days 13 (Base 50)    
Moisture  
Dew Point 27 °F    
Average Humidity 38    
Maximum Humidity 66    
Minimum Humidity 9    
Precipitation  
Precipitation 0.00 in 0.03 in 1.16 in (1975)
Month to date precipitation 0.00 0.23  
Year to date precipitation 15.94 13.73  
Sea Level Pressure  
Sea Level Pressure 29.97 in    
Wind  
Wind Speed 8 mph (NNE)    
Max Wind Speed 25 mph    
Max Gust Speed 32 mph    
Visibility 10 miles    
Events      
T = Trace of Precipitation, MM = Missing Value Source: NWS Daily Summary

Daily Weather History Graph

Daily Weather History Graph

Search for Another Location

Airport or City:

Astronomy

Oct. 10, 2019 Rise Set
Actual Time 7:12 AM PDT 6:38 PM PDT
Civil Twilight 6:46 AM PDT 7:04 PM PDT
Nautical Twilight 6:15 AM PDT 7:35 PM PDT
Astronomical Twilight 5:45 AM PDT 8:05 PM PDT
Moon 5:38 PM PDT (10/10) 4:06 AM PDT (10/10)
Length of Visible Light 12h 18m
Length of Day
11h 26m
Waxing Gibbous, 91% of the Moon is Illuminated
Oct 10
Waxing Gibbous
Oct 13
Full
Oct 21
Last Quarter
Oct 27
New
Nov 4
First Quarter

Hourly Weather History & Observations

Time (PDT) Temp. Dew Point Humidity Pressure Visibility Wind Dir Wind Speed Gust Speed Precip Events Conditions
12:53 AM 55.0 °F 37.0 °F 51% 29.93 in 10.0 mi NW 4.6 mph - N/A   Clear
1:53 AM 48.9 °F 37.9 °F 66% 29.94 in 10.0 mi ENE 3.5 mph - N/A   Clear
2:53 AM 53.1 °F 36.0 °F 52% 29.93 in 10.0 mi Calm Calm - N/A   Clear
3:53 AM 53.1 °F 33.1 °F 47% 29.94 in 10.0 mi Calm Calm - N/A   Partly Cloudy
4:53 AM 54.0 °F 28.0 °F 37% 29.95 in 10.0 mi North 3.5 mph - N/A   Partly Cloudy
5:53 AM 55.9 °F 19.0 °F 24% 29.96 in 10.0 mi NE 4.6 mph - N/A   Clear
6:53 AM 55.9 °F 21.9 °F 27% 29.98 in 10.0 mi North 5.8 mph - N/A   Partly Cloudy
7:53 AM 57.0 °F 19.0 °F 23% 29.99 in 10.0 mi NW 4.6 mph - N/A   Partly Cloudy
8:53 AM 62.1 °F 24.1 °F 23% 30.01 in 10.0 mi Variable 3.5 mph - N/A   Partly Cloudy
9:53 AM 64.9 °F 18.0 °F 16% 30.01 in 10.0 mi WNW 3.5 mph - N/A   Partly Cloudy
10:53 AM 71.1 °F 15.1 °F 12% 30.01 in 10.0 mi ENE 17.3 mph 21.9 mph N/A   Scattered Clouds
11:53 AM 73.9 °F 15.1 °F 11% 30.01 in 10.0 mi NE 12.7 mph - N/A   Scattered Clouds
12:53 PM 75.0 °F 12.9 °F 9% 30.01 in 10.0 mi ENE 24.2 mph 31.1 mph N/A   Scattered Clouds
1:53 PM 77.0 °F 17.1 °F 10% 29.98 in 10.0 mi NE 17.3 mph 24.2 mph N/A   Scattered Clouds
2:53 PM 78.1 °F 17.1 °F 10% 29.96 in 10.0 mi NE 16.1 mph - N/A   Scattered Clouds
3:53 PM 78.1 °F 17.1 °F 10% 29.96 in 10.0 mi ENE 17.3 mph - N/A   Scattered Clouds
4:53 PM 78.1 °F 16.0 °F 10% 29.95 in 10.0 mi NE 11.5 mph - N/A   Scattered Clouds
5:53 PM 68.0 °F 37.0 °F 32% 29.96 in 10.0 mi West 12.7 mph - N/A   Mostly Cloudy
6:53 PM 64.9 °F 39.0 °F 39% 29.96 in 10.0 mi WNW 8.1 mph - N/A   Mostly Cloudy
7:53 PM 63.0 °F 44.1 °F 50% 29.97 in 10.0 mi WNW 5.8 mph - N/A   Scattered Clouds
8:53 PM 62.1 °F 39.0 °F 43% 29.98 in 10.0 mi Calm Calm - N/A   Partly Cloudy
9:53 PM 57.0 °F 39.9 °F 53% 29.99 in 10.0 mi Calm Calm - N/A   Partly Cloudy
10:53 PM 55.9 °F 35.1 °F 45% 29.99 in 10.0 mi ENE 4.6 mph - N/A   Partly Cloudy
11:53 PM 54.0 °F 28.9 °F 38% 29.99 in 10.0 mi NE 4.6 mph - N/A   Partly Cloudy